| time (UTC) | temp F | wind direction | speed knots | gust knots | rain 1hr in | rain 24hr in | rain mn in | humidity % | barometer mb |
| 20260505024626 | 58 | 180 | 0.0 | 1.7 | 0.00 | 0.00 | 0.00 | 56 | 1012.2 |
| 20260505023629 | 59 | 180 | 0.9 | 0.9 | 0.00 | 0.00 | 0.00 | 56 | 1012.2 |
| 20260505022629 | 59 | 180 | 0.9 | 1.7 | 0.00 | 0.00 | 0.00 | 55 | 1012.2 |
| 20260505021630 | 60 | 180 | 0.0 | 1.7 | 0.00 | 0.00 | 0.00 | 53 | 1012.2 |
| 20260505020727 | 60 | 180 | 0.0 | 0.9 | 0.00 | 0.00 | 0.00 | 53 | 1012.1 |
| 20260505015728 | 60 | 180 | 0.0 | 0.0 | 0.00 | 0.00 | 0.00 | 52 | 1012.2 |
| 20260505014827 | 60 | 180 | 0.9 | 0.9 | 0.00 | 0.00 | 0.00 | 50 | 1012.2 |
| 20260505013828 | 61 | 180 | 0.0 | 0.0 | 0.00 | 0.00 | 0.00 | 50 | 1012.0 |
| 20260505012927 | 61 | 180 | 0.0 | 0.9 | 0.00 | 0.00 | 0.00 | 48 | 1012.1 |
| 20260505011930 | 61 | 180 | 0.0 | 0.9 | 0.00 | 0.00 | 0.00 | 49 | 1011.9 |
| 20260505010929 | 62 | 180 | 0.0 | 0.9 | 0.00 | 0.00 | 0.00 | 47 | 1011.8 |
| 20260505005028 | 64 | 180 | 0.9 | 0.9 | 0.00 | 0.00 | 0.00 | 45 | 1011.5 |
| 20260505004030 | 64 | 180 | 0.0 | 0.9 | 0.00 | 0.00 | 0.00 | 44 | 1011.5 |
| 20260505003128 | 65 | 180 | 0.9 | 0.9 | 0.00 | 0.00 | 0.00 | 43 | 1011.4 |
| 20260505002129 | 66 | 180 | 0.9 | 1.7 | 0.00 | 0.00 | 0.00 | 41 | 1011.3 |
| 20260505001128 | 66 | 180 | 0.9 | 0.9 | 0.00 | 0.00 | 0.00 | 40 | 1011.3 |
| 20260505000129 | 67 | 157 | 0.9 | 0.9 | 0.00 | 0.00 | 0.00 | 39 | 1011.2 |
| 20260504235127 | 68 | 180 | 0.0 | 1.7 | 0.00 | 0.00 | 0.00 | 37 | 1011.1 |
| 20260504234128 | 68 | 180 | 0.9 | 0.9 | 0.00 | 0.00 | 0.00 | 38 | 1010.9 |
| 20260504231128 | 69 | 183 | 1.7 | 3.5 | 0.00 | 0.00 | 0.00 | 36 | 1010.8 |
| 20260504230130 | 70 | 270 | 0.9 | 2.6 | 0.00 | 0.00 | 0.00 | 36 | 1010.7 |
| 20260504225227 | 70 | 182 | 0.9 | 2.6 | 0.00 | 0.00 | 0.00 | 36 | 1010.7 |
| 20260504223228 | 71 | 138 | 1.7 | 5.2 | 0.00 | 0.00 | 0.00 | 34 | 1010.7 |
| 20260504222229 | 72 | 205 | 1.7 | 5.2 | 0.00 | 0.00 | 0.00 | 33 | 1010.7 |
| 20260504221228 | 73 | 120 | 2.6 | 5.2 | 0.00 | 0.00 | 0.00 | 32 | 1010.7 |
| 20260504220230 | 74 | 165 | 1.7 | 2.6 | 0.00 | 0.00 | 0.00 | 31 | 1010.7 |
| 20260504215228 | 75 | 189 | 0.9 | 2.6 | 0.00 | 0.00 | 0.00 | 31 | 1010.8 |
| 20260504214229 | 76 | 149 | 2.6 | 3.5 | 0.00 | 0.00 | 0.00 | 30 | 1010.8 |
| 20260504213327 | 76 | 154 | 0.0 | 1.7 | 0.00 | 0.00 | 0.00 | 31 | 1010.9 |
| 20260504212329 | 75 | 233 | 0.9 | 2.6 | 0.00 | 0.00 | 0.00 | 31 | 1010.9 |
| 20260504211427 | 75 | 157 | 2.6 | 5.2 | 0.00 | 0.00 | 0.00 | 31 | 1010.9 |
| 20260504210428 | 74 | 147 | 0.9 | 2.6 | 0.00 | 0.00 | 0.00 | 32 | 1010.8 |
| 20260504205428 | 74 | 194 | 2.6 | 4.3 | 0.00 | 0.00 | 0.00 | 31 | 1010.8 |
| 20260504203528 | 75 | 199 | 0.0 | 5.2 | 0.00 | 0.00 | 0.00 | 29 | 1010.8 |
| 20260504202528 | 75 | 144 | 0.0 | 0.9 | 0.00 | 0.00 | 0.00 | 30 | 1011.0 |
| 20260504200529 | 75 | 303 | 1.7 | 2.6 | 0.00 | 0.00 | 0.00 | 31 | 1011.2 |
| 20260504195628 | 74 | 119 | 2.6 | 7.0 | 0.00 | 0.00 | 0.00 | 31 | 1011.0 |
| 20260504194627 | 74 | 169 | 1.7 | 3.5 | 0.00 | 0.00 | 0.00 | 30 | 1011.1 |
| 20260504193627 | 75 | 127 | 2.6 | 4.3 | 0.00 | 0.00 | 0.00 | 30 | 1011.0 |
| 20260504192629 | 74 | 283 | 0.0 | 2.6 | 0.00 | 0.00 | 0.00 | 31 | 1011.3 |
| 20260504191627 | 73 | 180 | 2.6 | 5.2 | 0.00 | 0.00 | 0.00 | 31 | 1011.4 |
| 20260504190628 | 74 | 257 | 0.9 | 5.2 | 0.00 | 0.00 | 0.00 | 31 | 1011.5 |
| 20260504185628 | 74 | 147 | 3.5 | 6.1 | 0.00 | 0.00 | 0.00 | 30 | 1011.8 |
| 20260504184627 | 73 | 177 | 2.6 | 5.2 | 0.00 | 0.00 | 0.00 | 31 | 1012.0 |
| 20260504183627 | 72 | 294 | 1.7 | 3.5 | 0.00 | 0.00 | 0.00 | 31 | 1012.0 |
| 20260504180727 | 72 | 185 | 0.9 | 3.5 | 0.00 | 0.00 | 0.00 | 32 | 1012.5 |
| 20260504175728 | 72 | 186 | 2.6 | 5.2 | 0.00 | 0.00 | 0.00 | 32 | 1012.8 |
| 20260504174729 | 71 | 155 | 1.7 | 6.1 | 0.00 | 0.00 | 0.00 | 33 | 1012.7 |
| 20260504173728 | 71 | 180 | 0.9 | 1.7 | 0.00 | 0.00 | 0.00 | 33 | 1012.9 |
| 20260504172728 | 71 | 134 | 2.6 | 3.5 | 0.00 | 0.00 | 0.00 | 33 | 1013.0 |
| 20260504171728 | 71 | 261 | 1.7 | 6.1 | 0.00 | 0.00 | 0.00 | 32 | 1013.0 |
| 20260504150827 | 64 | 127 | 1.7 | 3.5 | 0.00 | 0.00 | 0.00 | 43 | 1014.7 |
| 20260504140928 | 59 | 255 | 0.0 | 2.6 | 0.00 | 0.00 | 0.00 | 54 | 1015.0 |
| 20260504100130 | 45 | 180 | 0.9 | 1.7 | 0.00 | 0.00 | 0.00 | 64 | 1015.4 |
| 20260504081426 | 45 | 202 | 0.0 | 0.0 | 0.00 | 0.00 | 0.00 | 59 | 1015.3 |
| 20260504080428 | 45 | 180 | 0.0 | 0.0 | 0.00 | 0.00 | 0.00 | 60 | 1015.3 |
| 20260504045829 | 46 | 180 | 0.0 | 0.0 | 0.00 | 0.00 | 0.00 | 61 | 1015.1 |
| 20260504044927 | 46 | 173 | 1.7 | 2.6 | 0.00 | 0.00 | 0.00 | 62 | 1015.2 |
| 20260504042928 | 46 | 225 | 0.0 | 0.9 | 0.00 | 0.00 | 0.00 | 60 | 1015.0 |
| 20260504041926 | 46 | 149 | 0.0 | 0.9 | 0.00 | 0.00 | 0.00 | 61 | 1014.9 |
| 20260504035935 | 47 | 180 | 0.0 | 0.9 | 0.00 | 0.00 | 0.00 | 57 | 1014.8 |
| 20260504034935 | 48 | 180 | 0.0 | 0.9 | 0.00 | 0.00 | 0.00 | 55 | 1014.7 |
| 20260504033936 | 48 | 157 | 0.0 | 0.0 | 0.00 | 0.00 | 0.00 | 55 | 1014.7 |
| 20260504032936 | 48 | 197 | 1.7 | 3.5 | 0.00 | 0.00 | 0.00 | 56 | 1014.6 |
| 20260504031036 | 50 | 127 | 0.0 | 0.9 | 0.00 | 0.00 | 0.00 | 51 | 1014.6 |
| 20260504030036 | 50 | 225 | 0.0 | 0.0 | 0.00 | 0.00 | 0.00 | 49 | 1014.5 |